Date,TemperatureHighF,TemperatureAvgF,TemperatureLowF,DewpointHighF,DewpointAvgF,DewpointLowF,HumidityHigh,HumidityAvg,HumidityLow,PressureMaxIn,PressureMinIn,WindSpeedMaxMPH,WindSpeedAvgMPH,GustSpeedMaxMPH,PrecipitationSumIn
2013-1-1,38.0,33.5,28.0,34.0,29.9,25.0,93,86,78,29.49,29.16,8,2,20,0.00
2013-1-2,35.0,32.0,28.0,33.0,29.1,26.0,94,89,82,29.48,29.23,4,1,10,0.00
2013-1-3,39.0,36.0,33.0,35.0,31.4,28.0,92,83,72,29.57,29.45,6,3,17,0.00
2013-1-4,33.0,29.2,25.0,31.0,27.7,24.0,97,94,87,29.81,29.56,5,1,12,0.00
2013-1-5,33.0,31.7,29.0,31.0,28.5,26.0,94,88,81,29.72,29.26,10,6,24,0.00
2013-1-6,33.0,32.0,30.0,30.0,28.2,25.0,92,86,78,29.33,28.99,8,5,20,0.00
2013-1-7,33.0,31.5,28.0,28.0,25.9,22.0,87,80,73,29.37,29.01,8,5,17,0.00
2013-1-8,29.0,18.0,9.0,24.0,15.5,5.0,94,89,79,30.00,29.37,2,0,6,0.00
2013-1-9,21.0,13.8,5.0,18.0,11.5,2.0,93,91,88,30.09,29.94,2,0,5,0.00
2013-1-10,26.0,24.2,20.0,25.0,23.1,18.0,95,94,93,30.15,29.94,4,1,12,0.05
2013-1-11,29.0,27.7,26.0,28.0,26.5,24.0,96,94,93,30.14,29.89,6,2,17,0.06
2013-1-12,36.0,31.6,27.0,35.0,30.6,26.0,97,96,95,30.12,29.81,5,2,12,1.11
2013-1-13,36.0,34.9,33.0,35.0,33.9,32.0,98,97,96,29.87,29.62,5,1,10,2.20
2013-1-14,38.0,34.6,31.0,36.0,32.6,26.0,98,93,81,29.95,29.49,9,4,25,1.29
2013-1-15,31.0,27.0,20.0,28.0,23.6,18.0,95,86,81,30.21,29.95,7,2,21,0.01
2013-1-16,25.0,24.0,22.0,24.0,22.3,21.0,95,93,90,30.18,29.69,5,2,15,0.06
2013-1-17,23.0,19.2,13.0,22.0,15.6,10.0,94,85,78,29.95,29.62,5,1,10,0.02
2013-1-18,16.0,11.7,4.0,12.0,8.6,2.0,91,87,83,30.22,29.94,3,1,9,0.01
2013-1-19,28.0,22.2,15.0,25.0,18.8,11.0,90,86,82,30.23,29.88,12,6,28,0.00
2013-1-20,31.0,28.9,25.0,29.0,26.8,23.0,96,92,89,29.89,29.82,10,6,22,0.03
2013-1-21,36.0,31.7,24.0,30.0,28.2,23.0,97,87,77,29.88,29.65,11,6,26,0.01
2013-1-22,37.0,36.1,35.0,31.0,29.5,29.0,83,77,73,29.66,29.40,9,5,20,0.02
2013-1-23,37.0,34.8,31.0,32.0,29.0,26.0,90,79,71,29.40,29.27,7,5,16,0.06
2013-1-24,35.0,32.1,29.0,33.0,29.2,26.0,93,89,83,29.49,29.33,7,3,17,0.01
2013-1-25,34.0,21.6,0.0,32.0,15.4,-3.0,94,78,51,29.67,29.31,9,3,25,0.01
2013-1-26,8.0,-3.2,-11.0,0.0,-8.3,-15.0,92,79,60,29.91,29.67,1,0,3,0.00
2013-1-27,5.0,-4.6,-15.0,-5.0,-12.9,-19.0,85,68,47,30.19,29.91,6,1,20,0.00
2013-1-28,10.0,4.3,-8.0,7.0,-4.7,-15.0,87,66,54,30.20,29.82,13,4,24,0.01
2013-1-29,18.0,13.1,10.0,14.0,10.1,7.0,90,88,86,29.85,29.74,10,4,28,0.01
2013-1-30,31.0,24.7,17.0,30.0,22.8,14.0,96,92,89,29.84,29.64,8,4,20,0.15
2013-1-31,31.0,29.2,27.0,30.0,28.2,26.0,97,97,96,29.94,29.75,3,1,7,0.20
2013-2-1,33.0,29.7,27.0,31.0,28.2,26.0,97,94,90,29.96,29.65,7,5,18,0.03
2013-2-2,35.0,32.5,31.0,32.0,30.9,29.0,96,94,89,29.65,29.31,9,5,20,0.10
2013-2-3,36.0,33.0,24.0,34.0,30.2,23.0,95,89,84,29.45,29.21,9,3,23,0.09
2013-2-4,36.0,30.9,23.0,35.0,29.7,22.0,97,95,93,29.62,29.46,3,1,7,0.07
2013-2-5,32.0,26.9,22.0,30.0,25.6,21.0,97,95,89,29.63,29.51,5,1,9,0.01
2013-2-6,31.0,26.9,23.0,29.0,25.5,22.0,96,94,85,29.63,29.47,0,0,2,0.12
2013-2-7,28.0,26.3,24.0,27.0,25.3,23.0,96,95,94,29.61,29.27,6,2,16,0.07
2013-2-8,32.0,27.8,21.0,31.0,26.7,19.0,97,96,93,29.74,29.37,7,1,17,0.02
2013-2-9,39.0,31.6,28.0,36.0,29.8,27.0,95,93,86,29.68,29.17,9,5,24,0.02
2013-2-10,35.0,32.4,30.0,32.0,30.9,28.0,96,94,88,29.48,29.31,6,2,16,0.37
2013-2-11,30.0,24.7,17.0,28.0,20.0,14.0,94,83,74,29.74,29.47,7,3,17,0.05
2013-2-12,27.0,25.7,24.0,25.0,23.5,21.0,93,92,89,29.76,29.70,9,4,16,0.01
2013-2-13,31.0,28.0,25.0,28.0,25.8,23.0,100,91,87,29.80,29.59,7,3,16,0.00
2013-2-14,35.0,32.6,30.0,32.0,29.1,27.0,96,87,79,29.59,29.21,12,5,25,0.00
2013-2-15,32.0,25.4,8.0,29.0,21.2,5.0,95,84,69,29.91,29.49,5,2,14,0.00
2013-2-16,26.0,18.7,4.0,19.0,14.4,1.0,93,83,69,29.99,29.75,10,3,20,0.00
2013-2-17,28.0,24.2,19.0,26.0,21.8,13.0,93,91,79,29.78,29.58,10,4,23,0.00
2013-2-18,20.0,7.9,-3.0,14.0,3.8,-6.0,94,83,66,29.92,29.77,2,0,6,0.00
2013-2-19,21.0,14.0,4.0,19.0,9.5,2.0,93,82,71,29.86,29.23,9,4,22,0.03
2013-2-20,30.0,25.0,21.0,27.0,22.9,18.0,95,91,87,29.24,29.05,10,3,18,0.11
2013-2-21,31.0,26.3,22.0,28.0,24.8,20.0,100,93,89,29.25,29.12,3,1,9,0.02
2013-2-22,31.0,21.7,9.0,25.0,16.1,5.0,95,80,58,29.41,29.20,5,1,14,0.02
2013-2-23,27.0,21.9,10.0,24.0,18.9,7.0,93,88,82,29.37,29.14,11,4,24,0.02
2013-2-24,30.0,26.4,22.0,28.0,25.1,20.0,94,94,92,29.61,29.32,3,1,8,0.02
2013-2-25,33.0,28.6,23.0,29.0,25.0,22.0,96,87,71,29.63,29.51,10,5,24,0.01
2013-2-26,37.0,33.5,31.0,24.0,21.2,19.0,72,60,48,29.52,29.25,11,7,24,0.01
2013-2-27,36.0,32.4,29.0,28.0,21.9,18.0,83,65,58,29.26,29.16,9,6,20,0.00
2013-2-28,36.0,31.5,25.0,31.0,27.3,22.0,92,84,74,29.39,29.26,8,3,16,0.05
2013-3-1,36.0,29.4,22.0,33.0,27.5,20.0,96,93,83,29.93,29.39,3,0,7,0.13
2013-3-2,34.0,27.2,18.0,31.0,25.3,16.0,96,92,87,30.04,29.93,7,2,14,0.13
2013-3-3,33.0,29.8,26.0,26.0,24.3,22.0,92,80,69,30.39,30.04,10,6,18,0.01
2013-3-4,36.0,32.0,26.0,28.0,24.7,20.0,81,74,66,30.43,30.31,7,3,14,0.02
2013-3-5,38.0,28.1,18.0,29.0,21.9,15.0,89,78,64,30.31,29.97,5,1,7,0.06
2013-3-6,35.0,29.9,23.0,30.0,25.1,19.0,92,82,70,29.97,29.81,6,2,14,0.01
2013-3-7,43.0,35.8,30.0,33.0,29.6,25.0,87,78,52,29.81,29.46,10,5,23,0.01
2013-3-8,44.0,34.8,26.0,32.0,28.5,24.0,93,79,59,29.73,29.48,3,0,7,0.00
2013-3-9,42.0,35.3,32.0,34.0,31.4,29.0,94,86,71,30.08,29.73,5,1,13,0.00
2013-3-10,34.0,31.2,28.0,32.0,28.4,23.0,95,90,75,30.23,30.06,7,2,17,0.28
2013-3-11,38.0,31.0,20.0,29.0,24.4,17.0,96,78,54,30.32,30.23,9,2,20,0.09
2013-3-12,35.0,30.2,23.0,17.0,12.4,9.0,64,48,35,30.25,29.99,11,6,32,0.01
2013-3-13,30.0,26.0,20.0,9.0,5.8,3.0,51,42,33,30.00,29.78,9,5,25,0.00
2013-3-14,23.0,19.9,15.0,20.0,13.9,4.0,92,78,46,29.88,29.76,9,5,23,0.00
2013-3-15,33.0,22.8,6.0,20.0,11.8,3.0,93,65,36,29.83,29.73,6,2,16,0.05
2013-3-16,32.0,18.1,4.0,11.0,6.9,0.0,91,65,36,30.11,29.83,6,1,10,0.01
2013-3-17,31.0,14.7,2.0,21.0,8.2,-2.0,92,76,45,30.15,30.05,5,1,9,0.01
2013-3-18,32.0,15.5,1.0,18.0,8.7,-2.0,94,76,44,30.05,29.89,4,1,12,0.01
2013-3-19,30.0,21.6,7.0,12.0,6.8,4.0,93,55,35,29.94,29.89,9,4,24,0.00
2013-3-20,25.0,17.6,4.0,9.0,4.3,-3.0,77,56,44,29.97,29.90,6,2,14,0.00
2013-3-21,28.0,14.5,-2.0,16.0,6.5,-6.0,90,71,48,30.19,29.97,4,1,8,0.00
2013-3-22,31.0,25.4,21.0,27.0,22.0,14.0,93,86,67,30.11,29.81,4,2,12,0.11
2013-3-23,37.0,30.6,26.0,28.0,24.0,16.0,95,77,64,29.85,29.76,6,3,15,0.01
2013-3-24,27.0,24.7,21.0,26.0,19.6,13.0,94,82,61,29.85,29.59,5,2,10,0.14
2013-3-25,25.0,20.9,13.0,23.0,13.7,3.0,94,75,53,29.72,29.43,7,2,14,0.08
2013-3-26,20.0,10.4,1.0,10.0,3.6,-4.0,87,74,53,30.18,29.71,6,1,12,0.01
2013-3-27,21.0,11.0,-1.0,13.0,4.6,-4.0,89,76,59,30.26,30.18,6,2,14,0.00
2013-3-28,28.0,21.5,16.0,25.0,18.3,12.0,88,87,83,30.20,29.85,10,6,24,0.00
2013-3-29,37.0,32.5,28.0,32.0,28.3,24.0,92,85,80,29.95,29.82,10,6,23,0.06
2013-3-30,43.0,35.6,31.0,36.0,31.4,-99.9,96,88,73,30.22,29.95,4,1,10,0.20
2013-3-31,44.0,34.7,27.0,36.0,31.0,24.0,97,87,68,30.25,30.11,6,2,13,0.16
2013-4-1,40.0,30.9,22.0,31.0,25.8,20.0,96,83,62,30.12,29.97,2,1,6,0.01
2013-4-2,42.0,32.1,19.0,28.0,23.6,17.0,99,73,46,30.14,30.01,7,2,12,0.00
2013-4-3,43.0,34.1,23.0,31.0,25.4,20.0,90,71,52,30.22,30.14,8,2,15,0.00
2013-4-4,41.0,33.6,25.0,27.0,21.6,18.0,84,63,41,30.19,29.77,8,3,17,0.00
2013-4-5,36.0,27.6,14.0,19.0,13.4,10.0,89,57,33,29.77,29.49,6,2,12,0.00
2013-4-6,34.0,25.0,18.0,19.0,14.8,12.0,82,66,48,29.51,29.44,5,1,13,0.00
2013-4-7,28.0,23.1,13.0,20.0,13.2,6.0,82,66,46,29.79,29.51,9,4,21,0.00
2013-4-8,27.0,19.0,6.0,12.0,9.0,3.0,90,66,49,29.79,29.30,6,2,14,0.00
2013-4-9,25.0,19.7,7.0,12.0,7.8,2.0,86,60,50,29.47,29.09,7,2,17,0.00
2013-4-10,23.0,17.5,12.0,13.0,8.6,4.0,85,69,50,29.94,29.47,6,2,13,0.02
2013-4-11,25.0,16.3,3.0,14.0,7.5,0.0,89,69,49,30.12,29.94,7,2,17,0.01
2013-4-12,31.0,20.4,5.0,16.0,6.8,0.0,83,58,33,30.15,30.08,9,3,20,0.00
2013-4-13,34.0,26.2,13.0,20.0,11.3,5.0,77,54,36,30.42,30.14,7,2,16,0.00
2013-4-14,37.0,27.6,12.0,22.0,17.2,9.0,90,66,45,30.53,30.41,5,1,9,0.00
2013-4-15,40.0,28.7,15.0,24.0,18.5,11.0,91,67,44,30.43,30.30,8,2,16,0.00
2013-4-16,38.0,30.3,23.0,21.0,15.8,12.0,77,55,36,30.30,30.12,9,3,17,0.00
2013-4-17,35.0,26.2,16.0,25.0,17.3,11.0,87,69,49,30.16,30.11,5,1,12,0.00
2013-4-18,40.0,30.2,17.0,24.0,19.0,14.0,88,64,39,30.19,30.12,7,2,13,0.00
2013-4-19,44.0,34.8,26.0,23.0,18.6,16.0,79,52,35,30.32,30.14,8,3,15,0.00
2013-4-20,42.0,31.9,18.0,29.0,22.0,15.0,93,69,44,30.42,30.32,5,1,10,0.00
2013-4-21,40.0,32.8,23.0,34.0,26.7,21.0,91,79,58,30.40,30.33,7,3,16,0.01
2013-4-22,49.0,38.9,28.0,30.0,27.4,24.0,91,66,39,30.51,30.38,8,3,17,0.01
2013-4-23,39.0,36.7,34.0,37.0,33.7,28.0,95,90,65,30.47,30.35,7,3,15,0.76
2013-4-24,40.0,36.0,31.0,38.0,34.2,29.0,97,93,87,30.36,29.86,3,0,8,0.01
2013-4-25,45.0,39.5,34.0,34.0,21.0,15.0,95,48,34,29.87,29.72,14,9,29,0.00
2013-4-26,39.0,34.4,28.0,27.0,18.1,12.0,73,51,34,29.78,29.50,11,3,20,0.00
2013-4-27,45.0,38.3,32.0,25.0,20.4,15.0,69,49,36,29.93,29.53,12,5,26,0.00
2013-4-28,44.0,36.0,28.0,29.0,17.8,13.0,83,48,35,30.16,29.92,8,3,17,0.00
2013-4-29,42.0,33.2,22.0,29.0,24.0,20.0,92,71,46,30.18,30.10,3,1,8,0.00
2013-4-30,42.0,35.4,27.0,34.0,29.6,24.0,89,80,62,30.10,29.80,3,1,8,0.02
2013-5-1,46.0,38.2,31.0,33.0,30.8,29.0,94,76,53,29.80,29.55,9,4,20,0.02
2013-5-2,42.0,36.0,30.0,39.0,33.8,27.0,96,92,82,29.85,29.63,3,0,7,0.63
2013-5-3,41.0,37.0,35.0,38.0,34.7,30.0,97,92,75,29.90,29.79,5,1,13,1.26
2013-5-4,42.0,37.6,34.0,37.0,33.7,30.0,95,86,77,29.93,29.77,3,1,9,0.08
2013-5-5,47.0,37.4,26.0,34.0,28.4,25.0,96,72,43,30.14,29.93,9,2,14,0.02
2013-5-6,44.0,37.7,31.0,36.0,31.8,27.0,89,79,66,30.26,30.14,5,1,16,0.00
2013-5-7,46.0,39.0,31.0,38.0,33.0,27.0,93,80,51,30.29,30.25,6,1,12,0.00
2013-5-8,53.0,43.8,33.0,36.0,31.5,27.0,96,66,38,30.28,30.22,9,3,18,0.00
2013-5-9,51.0,45.4,40.0,34.0,30.6,27.0,59,56,51,30.29,30.24,5,2,9,0.00
2013-5-11,51.0,45.3,40.0,44.0,39.9,-99.9,95,86,75,29.83,29.57,6,2,9,0.11
2013-5-12,56.0,48.4,42.0,42.0,38.5,36.0,85,70,50,29.57,29.47,5,2,12,0.03
2013-5-13,51.0,43.4,35.0,42.0,36.0,23.0,97,77,45,29.48,29.42,5,1,12,0.05
2013-5-14,47.0,40.7,33.0,33.0,25.2,21.0,84,55,39,29.64,29.47,4,2,9,0.01
2013-5-15,47.0,38.9,29.0,36.0,29.9,24.0,88,71,41,29.75,29.63,5,1,12,0.00
2013-5-16,40.0,36.2,36.0,39.0,22.3,-99.9,96,91,75,29.73,29.43,6,3,18,1.03
2013-5-17,45.0,38.2,34.0,39.0,32.4,-99.9,96,92,74,29.53,29.39,5,1,9,0.95
2013-5-18,42.0,36.1,31.0,33.0,26.1,19.0,94,69,42,30.18,29.52,8,2,16,0.13
2013-5-19,44.0,36.5,26.0,28.0,23.4,16.0,85,61,35,30.60,30.18,7,2,15,0.01
2013-5-20,47.0,37.2,25.0,36.0,28.0,22.0,92,72,38,30.65,30.56,6,1,12,0.00
2013-5-21,47.0,41.2,32.0,39.0,35.2,29.0,93,79,68,30.56,30.27,6,2,12,0.00
2013-5-22,49.0,43.7,39.0,42.0,38.8,35.0,94,83,70,30.27,30.13,5,1,12,0.03
2013-5-23,53.0,46.8,41.0,46.0,42.0,38.0,97,84,66,30.16,30.10,6,2,12,0.04
2013-5-24,61.0,48.3,37.0,44.0,40.7,34.0,96,77,50,30.11,29.98,6,1,12,0.01
2013-5-25,55.0,45.5,35.0,45.0,40.6,33.0,96,84,66,29.99,29.91,6,2,12,0.00
2013-5-26,51.0,44.2,32.0,45.0,40.9,30.0,97,89,73,29.94,29.88,3,1,7,0.20
2013-5-27,71.0,51.2,43.0,49.0,44.6,40.0,97,81,40,29.89,29.78,9,2,16,0.20
2013-5-28,69.0,52.4,39.0,47.0,42.7,38.0,97,73,43,29.80,29.64,6,1,10,0.01
2013-5-29,61.0,50.8,39.0,46.0,42.5,36.0,92,74,52,29.76,29.64,5,1,12,0.00
2013-5-30,54.0,47.9,43.0,47.0,43.7,41.0,95,86,74,30.02,29.75,5,3,16,0.00
2013-5-31,55.0,47.7,43.0,48.0,44.7,42.0,97,90,77,30.16,30.01,5,3,13,0.00
2013-6-1,53.0,47.6,44.0,47.0,44.4,42.0,95,89,76,30.23,30.16,5,2,12,0.06
2013-6-2,55.0,48.8,43.0,46.0,43.6,42.0,97,83,65,30.23,30.05,6,2,16,0.23
2013-6-3,58.0,52.0,45.0,46.0,42.5,40.0,86,71,58,30.05,29.73,7,2,14,0.02
2013-6-4,55.0,48.8,43.0,48.0,43.9,40.0,93,84,69,29.84,29.68,7,1,13,0.52
2013-6-5,57.0,48.9,38.0,46.0,41.7,37.0,97,78,55,29.98,29.83,6,1,10,0.14
2013-6-6,68.0,54.3,35.0,42.0,38.7,33.0,94,60,33,29.95,29.70,9,3,20,0.01
2013-6-7,62.0,51.1,43.0,47.0,42.6,39.0,88,74,52,29.92,29.70,5,2,14,0.00
2013-6-8,59.0,52.8,45.0,48.0,45.1,42.0,88,76,66,30.11,29.92,4,2,12,0.00
2013-6-9,63.0,53.8,41.0,49.0,45.6,39.0,94,75,58,30.21,30.11,5,1,10,0.00
2013-6-10,59.0,52.6,42.0,49.0,45.9,40.0,95,78,68,30.25,30.12,5,1,12,0.00
2013-6-11,69.0,56.8,42.0,50.0,46.2,40.0,94,70,45,30.14,29.99,3,1,10,0.00
2013-6-12,66.0,53.4,45.0,50.0,46.4,43.0,93,78,52,30.01,29.96,4,1,13,0.00
2013-6-13,51.0,47.8,45.0,46.0,44.9,43.0,95,90,83,30.19,29.99,4,2,14,0.00
2013-6-14,56.0,50.0,45.0,49.0,46.5,44.0,96,88,74,30.27,30.18,4,2,14,0.00
2013-6-15,51.0,48.1,46.0,48.0,45.7,43.0,97,92,85,30.34,30.24,4,1,9,0.00
2013-6-16,67.0,53.4,39.0,52.0,47.1,38.0,97,81,58,30.25,30.13,3,1,8,0.00
2013-6-17,64.0,56.1,47.0,53.0,49.1,44.0,93,78,64,30.13,29.86,3,1,9,0.00
2013-6-18,65.0,57.0,47.0,55.0,50.0,44.0,93,78,66,29.92,29.80,6,2,14,0.00
2013-6-19,70.0,58.6,46.0,52.0,48.9,44.0,94,72,48,30.00,29.84,9,2,16,0.00
2013-6-20,55.0,49.9,45.0,51.0,47.3,43.0,96,91,84,30.02,29.99,3,1,10,0.00
2013-6-21,53.0,53.0,53.0,46.0,45.2,45.0,76,75,74,30.11,30.10,2,1,5,0.00
2013-6-22,62.0,56.0,44.0,51.0,48.0,42.0,95,75,61,30.03,29.77,6,2,12,0.00
2013-6-23,69.0,56.8,50.0,53.0,50.0,47.0,95,80,51,29.78,29.64,6,1,12,0.17
2013-6-24,61.0,54.0,50.0,54.0,50.1,48.0,93,87,77,29.69,29.63,3,1,8,0.02
2013-6-25,64.0,56.1,48.0,52.0,49.4,46.0,94,79,61,29.63,29.60,3,1,9,0.00
2013-6-26,70.0,57.4,45.0,55.0,50.3,43.0,95,78,57,29.87,29.62,5,1,12,0.00
2013-6-27,57.0,53.1,50.0,53.0,50.8,48.0,96,92,86,30.09,29.87,6,2,14,0.00
2013-6-28,56.0,52.3,49.0,52.0,50.0,48.0,96,92,86,30.19,30.09,4,2,10,0.00
2013-6-29,60.0,54.5,51.0,54.0,51.0,48.0,95,88,79,30.15,30.02,3,1,12,0.00
2013-6-30,58.0,52.9,51.0,51.0,49.3,48.0,96,87,77,30.06,29.86,3,1,12,0.04
2013-7-1,61.0,53.1,49.0,52.0,48.4,44.0,97,85,62,29.86,29.56,6,2,14,0.86
2013-7-2,57.0,52.3,48.0,51.0,48.2,45.0,96,86,77,29.89,29.57,4,2,13,0.03
2013-7-3,56.0,51.9,49.0,51.0,48.5,47.0,94,89,79,30.03,29.89,3,1,8,0.01
2013-7-4,52.0,49.2,48.0,50.0,48.0,47.0,97,96,93,30.03,29.99,1,0,3,0.40
2013-7-5,56.0,54.9,53.0,52.0,51.6,50.0,91,89,84,30.03,30.02,1,0,3,0.47
2013-7-6,61.0,54.6,50.0,54.0,50.6,49.0,96,87,73,30.03,29.74,3,1,8,0.49
2013-7-7,57.0,52.7,49.0,54.0,51.0,46.0,96,94,89,29.74,29.58,5,1,12,0.69
2013-7-8,59.0,50.7,47.0,53.0,46.9,-99.9,97,90,81,29.83,29.69,5,2,14,0.01
2013-7-9,59.0,53.9,48.0,53.0,49.3,46.0,93,85,76,30.03,29.83,5,1,12,0.01
2013-7-10,64.0,56.3,50.0,54.0,48.4,-99.9,93,78,67,30.05,29.93,3,1,7,0.00
2013-7-11,73.0,60.1,47.0,55.0,50.9,45.0,95,74,52,29.95,29.91,7,2,14,0.00
2013-7-12,66.0,57.4,49.0,56.0,50.8,46.0,94,79,59,29.97,29.93,4,1,12,0.00
2013-7-13,61.0,55.5,50.0,54.0,51.2,48.0,95,86,75,30.18,29.95,5,2,12,0.00
2013-7-14,63.0,56.4,52.0,55.0,52.1,50.0,95,86,74,30.33,30.18,5,2,14,0.00
2013-7-15,60.0,54.5,48.0,55.0,51.6,46.0,96,90,82,30.35,30.26,3,1,10,0.00
2013-7-16,62.0,56.1,53.0,55.0,52.7,51.0,94,89,79,30.26,30.14,3,1,7,0.00
2013-7-17,63.0,56.9,49.0,57.0,53.5,47.0,97,89,80,30.14,30.08,4,1,12,0.00
2013-7-18,66.0,58.4,52.0,60.0,55.2,51.0,98,89,80,30.16,30.09,6,2,20,0.33
2013-7-19,66.0,61.6,58.0,57.0,55.0,52.0,89,79,70,30.19,30.11,7,4,22,0.09
2013-7-20,68.0,59.1,53.0,57.0,51.3,-99.9,90,77,66,30.14,30.06,3,1,12,0.00
2013-7-21,69.0,58.3,45.0,54.0,49.9,43.0,96,75,55,30.08,29.98,4,1,8,0.00
2013-7-22,72.0,63.2,50.0,54.0,50.0,45.0,85,63,46,30.08,30.01,6,2,16,0.00
2013-7-23,68.0,59.2,49.0,57.0,52.5,46.0,92,79,61,30.11,30.04,2,0,7,0.00
2013-7-24,70.0,59.0,47.0,59.0,53.1,45.0,96,82,62,30.05,29.95,4,1,7,0.00
2013-7-25,65.0,59.2,54.0,58.0,55.1,51.0,94,87,78,30.07,29.95,4,1,12,0.83
2013-7-26,63.0,58.1,55.0,59.0,56.1,53.0,97,93,83,30.29,30.06,4,1,10,2.62
2013-7-27,58.0,55.0,53.0,55.0,53.5,51.0,98,95,91,30.37,30.29,3,1,7,0.01
2013-7-28,66.0,57.0,47.0,60.0,53.9,46.0,98,90,79,30.31,30.17,3,1,7,0.01
2013-7-29,60.0,55.9,51.0,56.0,54.0,50.0,98,93,87,30.21,30.15,3,1,8,0.00
2013-7-30,63.0,58.1,53.0,57.0,54.9,52.0,97,90,81,30.23,30.17,3,1,9,0.00
2013-7-31,62.0,57.9,52.0,57.0,54.9,51.0,98,90,81,30.22,30.13,4,1,10,0.11
2013-8-1,65.0,58.9,55.0,58.0,55.6,54.0,97,89,75,30.14,29.98,5,1,9,0.05
2013-8-2,69.0,60.4,55.0,59.0,55.1,53.0,97,84,60,30.00,29.75,5,1,15,0.12
2013-8-3,68.0,60.3,56.0,56.0,53.6,50.0,96,79,57,29.89,29.70,7,2,18,0.17
2013-8-4,61.0,56.7,54.0,56.0,54.6,53.0,98,93,81,29.98,29.89,5,1,12,0.38
2013-8-5,64.0,57.2,54.0,59.0,55.2,53.0,98,94,83,29.98,29.93,5,1,7,0.29
2013-8-6,66.0,58.9,54.0,56.0,52.6,51.0,94,80,67,29.94,29.85,7,3,20,0.11
2013-8-7,66.0,59.8,55.0,56.0,53.2,51.0,93,79,62,29.85,29.71,7,2,14,0.19
2013-8-8,58.0,54.5,51.0,54.0,51.4,50.0,97,90,77,29.82,29.71,3,1,8,0.26
2013-8-9,59.0,54.3,50.0,57.0,52.7,48.0,96,94,88,29.81,29.67,6,2,18,0.92
2013-8-10,60.0,55.2,52.0,55.0,52.7,50.0,98,92,80,30.01,29.75,3,1,7,0.09
2013-8-11,56.0,54.0,50.0,55.0,53.0,49.0,99,97,95,30.02,29.99,7,2,12,1.87
2013-8-12,63.0,57.8,55.0,60.0,56.4,54.0,98,96,90,30.04,30.00,4,2,12,2.59
2013-8-13,58.0,54.8,53.0,57.0,52.1,-99.9,98,95,90,30.03,29.98,3,1,9,0.04
2013-8-14,60.0,53.0,46.0,54.0,46.1,-99.9,99,88,73,30.03,29.91,2,0,7,0.00
2013-8-15,62.0,48.3,42.0,54.0,34.0,-99.9,98,83,75,29.91,29.78,3,0,6,0.00
2013-8-16,59.0,52.4,49.0,56.0,48.5,-99.9,98,94,85,29.78,29.62,4,1,12,0.41
2013-8-17,65.0,57.4,55.0,59.0,53.5,-99.9,97,90,76,29.62,29.49,6,3,17,0.45
2013-8-18,61.0,56.5,53.0,57.0,54.3,52.0,98,93,82,29.65,29.48,3,0,7,0.14
2013-8-19,56.0,51.2,53.0,54.0,42.6,-99.9,97,94,92,29.76,29.65,6,2,13,0.14
2013-8-20,60.0,54.0,51.0,56.0,50.7,-99.9,97,92,85,29.85,29.76,5,2,20,0.01
2013-8-21,55.0,53.4,53.0,53.0,52.0,51.0,98,96,88,29.85,29.75,4,2,13,1.35
2013-8-22,55.0,53.5,53.0,55.0,52.8,52.0,99,98,98,29.75,29.68,5,1,12,1.18
2013-8-23,60.0,55.3,49.0,55.0,52.6,47.0,98,91,81,29.68,29.53,3,1,9,0.03
2013-8-24,64.0,50.0,42.0,54.0,45.2,-99.9,99,88,64,29.72,29.57,5,0,14,0.00
2013-8-25,65.0,53.1,40.0,50.0,44.9,38.0,97,76,47,29.75,29.68,5,1,10,0.00
2013-8-26,61.0,51.3,43.0,55.0,47.9,41.0,99,88,68,29.76,29.72,4,0,8,0.00
2013-8-27,49.0,46.5,45.0,48.0,45.1,44.0,96,95,92,29.80,29.75,0,0,1,0.00
2013-8-28,55.0,55.0,55.0,51.0,51.0,51.0,86,86,86,29.70,29.53,0,0,0,0.06
2013-8-29,55.0,55.0,55.0,51.0,51.0,51.0,86,86,86,29.86,29.51,0,0,0,0.60
2013-8-30,55.0,55.0,55.0,51.0,51.0,51.0,86,86,86,29.96,29.86,0,0,0,0.07
2013-8-31,57.0,54.7,55.0,54.0,49.8,-99.9,91,86,86,29.93,29.83,3,0,7,0.00
2013-9-1,56.0,55.6,55.0,54.0,52.7,52.0,93,91,91,29.84,29.72,2,0,8,0.05
2013-9-2,55.0,55.0,55.0,54.0,52.5,52.0,95,92,91,29.72,29.52,2,0,5,0.43
2013-9-3,59.0,55.6,55.0,54.0,52.7,52.0,94,91,81,29.52,29.28,2,0,8,0.25
2013-9-4,56.0,55.2,53.0,52.0,50.9,48.0,89,85,80,29.79,29.41,6,1,16,0.39
2013-9-5,56.0,53.1,51.0,52.0,48.5,48.0,92,84,81,30.01,29.79,1,0,3,0.02
2013-9-6,52.0,50.5,49.0,50.0,48.3,47.0,96,92,87,29.99,29.39,10,4,25,0.99
2013-9-7,57.0,52.0,50.0,54.0,49.2,-99.9,98,94,88,29.63,29.42,5,1,17,1.18
2013-9-8,58.0,52.9,49.0,52.0,50.0,47.0,98,90,78,29.83,29.48,7,2,22,0.07
2013-9-9,60.0,53.8,50.0,52.0,49.3,47.0,96,85,67,29.83,29.59,6,2,17,0.31
2013-9-10,59.0,54.0,52.0,56.0,52.7,51.0,98,96,89,29.74,29.66,3,1,8,1.32
2013-9-11,58.0,52.9,48.0,55.0,50.9,46.0,98,93,85,29.89,29.61,5,2,14,0.57
2013-9-12,58.0,50.2,41.0,50.0,46.1,40.0,98,87,66,29.98,29.89,4,1,8,0.12
2013-9-13,60.0,53.4,49.0,53.0,49.9,47.0,96,88,75,29.93,29.85,8,3,18,0.19
2013-9-14,64.0,54.8,46.0,51.0,46.5,-99.9,95,78,53,29.93,29.85,6,2,13,0.03
2013-9-15,58.0,51.1,42.0,51.0,46.8,40.0,96,86,72,29.88,29.72,2,0,6,0.01
2013-9-16,56.0,46.3,33.0,50.0,43.2,32.0,99,89,73,29.72,29.49,3,0,7,0.02
2013-9-17,55.0,47.1,40.0,49.0,44.6,38.0,97,91,79,29.53,29.46,2,0,6,0.06
2013-9-18,49.0,44.5,42.0,46.0,42.8,40.0,97,94,88,29.61,29.53,1,0,3,0.16
2013-9-19,51.0,43.9,36.0,42.0,37.6,31.0,96,80,48,29.59,29.43,5,1,12,0.20
2013-9-20,47.0,37.0,27.0,37.0,28.7,24.0,96,75,41,29.43,29.03,3,1,10,0.01
2013-9-21,45.0,39.4,30.0,40.0,33.3,-99.9,94,82,66,29.04,28.96,5,2,15,0.13
2013-9-22,49.0,43.4,38.0,39.0,28.7,22.0,94,57,39,29.31,28.96,6,2,20,0.08
2013-9-23,49.0,42.0,29.0,31.0,24.7,21.0,89,52,36,29.75,29.31,6,2,18,0.00
2013-9-24,44.0,36.0,27.0,38.0,29.9,25.0,93,79,57,29.96,29.76,4,1,10,0.15
2013-9-25,50.0,45.0,40.0,48.0,43.7,38.0,97,95,91,29.83,29.44,3,1,10,2.01
2013-9-26,49.0,46.4,44.0,47.0,45.0,43.0,97,95,90,29.62,29.19,3,1,12,0.31
2013-9-27,53.0,47.7,43.0,45.0,43.4,40.0,97,86,68,29.20,28.93,13,3,23,0.30
2013-9-28,53.0,44.7,37.0,48.0,38.8,-99.9,98,83,61,29.16,29.09,4,1,10,0.01
2013-9-29,50.0,46.8,41.0,39.0,35.8,33.0,81,66,57,29.38,29.16,8,3,16,0.00
2013-9-30,51.0,44.8,34.0,38.0,34.7,31.0,92,69,56,29.59,29.38,7,2,12,0.00
2013-10-1,49.0,45.2,41.0,37.0,35.8,34.0,85,70,58,29.80,29.76,5,1,12,0.00
2013-10-2,48.0,44.0,41.0,44.0,41.1,36.0,95,89,75,29.82,29.76,6,2,13,0.08
2013-10-3,53.0,47.6,43.0,43.0,41.3,40.0,95,80,62,29.76,29.41,13,6,28,0.03
2013-10-4,52.0,44.9,37.0,44.0,40.6,35.0,96,85,72,29.75,29.45,3,0,7,0.01
2013-10-5,49.0,40.6,32.0,42.0,37.9,31.0,98,90,77,29.78,29.70,4,0,12,0.00
2013-10-6,48.0,42.4,39.0,45.0,40.8,37.0,100,94,87,29.72,29.67,6,1,14,0.22
2013-10-7,47.0,41.1,36.0,45.0,39.7,35.0,97,95,89,29.85,29.66,3,1,9,0.20
2013-10-8,48.0,44.3,42.0,47.0,42.9,40.0,98,95,89,29.66,29.05,7,2,17,2.71
2013-10-9,50.0,44.8,41.0,41.0,38.3,29.0,92,78,57,29.71,29.08,6,3,21,0.09
2013-10-10,42.0,36.0,29.0,41.0,34.4,27.0,96,94,89,29.72,29.66,6,1,10,0.48
2013-10-11,47.0,42.7,40.0,46.0,41.6,39.0,98,96,93,29.86,29.70,5,2,12,0.62
2013-10-12,51.0,45.3,42.0,45.0,40.5,-99.9,97,87,69,29.83,29.57,9,2,18,0.20
2013-10-13,50.0,45.5,43.0,46.0,42.5,40.0,97,90,69,29.67,29.45,12,2,25,1.31
2013-10-14,48.0,43.4,38.0,45.0,41.6,37.0,98,94,85,30.04,29.67,3,1,12,0.05
2013-10-15,49.0,45.3,43.0,48.0,44.2,42.0,98,96,93,30.11,29.98,2,0,7,0.54
2013-10-16,47.0,46.2,43.0,46.0,44.8,42.0,98,96,91,30.24,30.11,3,0,8,0.15
2013-10-17,52.0,47.5,45.0,46.0,43.8,40.0,96,88,72,30.11,29.75,5,1,12,0.10
2013-10-18,49.0,45.9,43.0,45.0,42.3,40.0,96,87,77,29.77,29.56,7,2,20,0.33
2013-10-19,51.0,46.4,42.0,43.0,39.0,-99.9,94,78,69,29.65,29.34,9,2,25,0.18
2013-10-20,50.0,44.4,36.0,43.0,39.6,32.0,93,83,71,29.93,29.65,3,1,12,0.13
2013-10-21,46.0,39.6,31.0,41.0,36.8,30.0,98,90,80,30.03,29.93,3,1,8,0.08
2013-10-22,45.0,41.0,35.0,41.0,38.1,33.0,96,89,80,30.18,30.00,6,2,15,0.11
2013-10-23,41.0,34.2,28.0,37.0,32.2,26.0,98,92,85,30.05,29.75,4,1,14,0.01
2013-10-24,43.0,36.0,27.0,38.0,32.8,26.0,96,88,80,29.82,29.60,7,3,16,0.06
2013-10-25,46.0,37.5,30.0,41.0,34.7,29.0,98,90,73,30.17,29.78,2,0,6,0.03
2013-10-26,42.0,34.1,28.0,38.0,31.0,-99.9,98,91,84,30.44,30.16,5,1,15,0.01
2013-10-27,42.0,40.8,39.0,41.0,39.1,35.0,97,93,80,30.28,29.56,12,5,24,1.95
2013-10-28,48.0,45.0,42.0,47.0,42.7,-99.9,98,96,91,29.57,29.22,9,3,22,3.01
2013-10-29,47.0,43.5,40.0,43.0,39.9,37.0,94,87,76,29.56,29.30,10,3,23,0.01
2013-10-30,48.0,44.0,42.0,40.0,38.1,36.0,90,80,70,29.31,29.05,10,7,29,0.04
2013-10-31,45.0,42.3,40.0,42.0,40.0,38.0,96,92,84,29.60,29.15,4,1,8,0.10
2013-11-1,43.0,40.5,39.0,42.0,39.5,38.0,97,96,94,29.98,29.62,2,0,5,0.59
2013-11-2,41.0,37.8,32.0,39.0,34.6,-99.9,97,92,88,30.00,29.77,6,2,13,0.01
2013-11-3,49.0,42.8,39.0,41.0,37.1,35.0,88,80,70,29.78,29.52,6,2,16,0.01
2013-11-4,43.0,39.5,30.0,38.0,34.8,28.0,93,83,74,29.52,29.29,9,4,22,0.01
2013-11-5,44.0,33.6,28.0,37.0,30.0,20.0,96,87,67,29.98,29.37,4,0,7,0.00
2013-11-6,33.0,26.5,20.0,24.0,21.5,18.0,93,81,65,30.08,29.93,1,0,6,0.00
2013-11-7,33.0,30.0,24.0,25.0,22.8,20.0,85,75,65,29.92,29.76,7,2,20,0.00
2013-11-8,33.0,24.7,19.0,24.0,20.4,17.0,94,84,65,30.20,29.88,3,0,7,0.00
2013-11-9,30.0,27.5,22.0,29.0,23.5,-99.9,96,88,84,30.21,30.02,4,1,10,0.00
2013-11-10,41.0,37.0,31.0,40.0,36.0,30.0,98,97,96,30.01,29.72,5,1,12,1.72
2013-11-11,32.0,29.6,27.0,31.0,25.9,17.0,97,86,65,30.10,29.85,0,0,0,0.11
2013-11-12,26.0,20.5,13.0,19.0,15.8,11.0,100,82,64,30.14,30.09,5,0,14,0.02
2013-11-13,27.0,25.0,22.0,24.0,20.9,17.0,90,84,80,30.24,30.12,3,1,9,0.04
2013-11-14,39.0,30.7,27.0,37.0,29.2,24.0,98,94,88,30.14,29.88,5,1,10,0.05
2013-11-15,28.0,24.6,17.0,27.0,23.2,14.0,96,94,91,30.05,29.95,2,0,7,0.01
2013-11-16,25.0,17.2,13.0,20.0,12.7,-99.9,93,86,59,30.24,30.01,6,0,15,0.00
2013-11-17,23.0,19.5,9.0,11.0,8.7,4.0,79,62,55,30.27,30.22,9,4,22,0.00
2013-11-18,16.0,6.7,1.0,8.0,2.2,-3.0,89,81,67,30.24,30.18,1,0,7,0.00
2013-11-19,14.0,6.3,-2.0,8.0,1.7,-5.0,90,81,63,30.19,30.01,5,1,13,0.00
2013-11-20,14.0,10.2,6.0,8.0,4.1,2.0,85,76,63,30.09,29.97,7,3,20,0.00
2013-11-21,24.0,15.3,10.0,22.0,10.5,2.0,94,81,66,29.98,29.15,13,6,28,0.00
2013-11-22,31.0,26.4,23.0,30.0,23.9,19.0,96,90,78,29.47,29.11,10,4,26,0.00
2013-11-23,32.0,24.8,14.0,31.0,21.7,-99.9,96,92,88,29.96,29.47,6,1,20,0.00
2013-11-24,33.0,31.0,29.0,32.0,30.0,28.0,97,96,94,30.03,29.97,4,2,10,0.03
2013-11-25,31.0,28.5,25.0,29.0,26.9,24.0,95,94,93,29.97,29.74,6,2,13,0.01
2013-11-26,32.0,29.4,26.0,30.0,27.6,25.0,96,93,89,29.89,29.79,2,0,5,0.00
2013-11-27,31.0,28.9,26.0,30.0,27.8,21.0,97,95,89,29.90,29.69,3,0,7,0.04
2013-12-8,33.0,31.5,28.0,32.0,31.0,27.0,98,98,97,30.48,30.38,1,0,2,0.07
2013-12-9,32.0,30.8,29.0,31.0,29.8,28.0,97,97,97,30.38,30.23,0,0,0,0.01
2013-12-10,31.0,29.8,26.0,30.0,28.3,22.0,97,95,83,30.22,29.79,0,0,0,0.00
2013-12-11,27.0,25.1,20.0,22.0,14.9,6.0,89,65,53,29.79,29.46,7,2,23,0.00
2013-12-12,19.0,13.8,7.0,14.0,8.1,3.0,91,78,58,29.49,29.43,3,0,13,0.00
2013-12-13,24.0,19.3,14.0,23.0,16.3,11.0,94,88,75,29.50,28.89,11,4,23,0.00
2013-12-14,23.0,20.8,17.0,22.0,17.8,-99.9,94,92,91,29.08,28.87,5,2,15,0.00
2013-12-15,20.0,11.3,-5.0,19.0,8.8,-8.0,98,89,85,29.93,29.08,6,1,13,0.00
2013-12-16,2.0,-4.8,-12.0,-1.0,-7.8,-16.0,89,86,82,30.14,29.93,1,0,3,0.00
2013-12-17,-5.0,-11.3,-15.0,-8.0,-14.9,-19.0,86,83,82,30.40,30.15,1,0,2,0.00
2013-12-18,17.0,2.2,-9.0,15.0,-0.5,-12.0,93,88,83,30.42,29.74,11,2,26,0.00
2013-12-19,20.0,14.7,7.0,19.0,12.7,4.0,94,92,89,29.75,29.65,9,2,20,0.00
2013-12-20,27.0,20.0,13.0,25.0,18.6,11.0,96,94,91,29.72,29.64,3,1,9,0.00
2013-12-21,31.0,29.1,27.0,30.0,26.8,-99.9,97,95,96,29.67,29.48,5,2,12,0.00
2013-12-22,31.0,28.9,15.0,31.0,27.9,12.0,98,96,91,29.72,29.40,5,0,10,0.06
2013-12-27,20.0,4.5,-9.0,18.0,1.7,-12.0,93,88,84,29.97,29.81,3,0,8,0.00
2013-12-28,23.0,20.6,17.0,22.0,18.0,-99.9,95,92,92,29.96,29.92,3,0,8,0.00
2013-12-29,27.0,23.6,21.0,25.0,22.4,20.0,96,94,91,29.97,29.66,4,1,10,0.00
2013-12-30,27.0,20.8,9.0,25.0,18.7,7.0,92,91,90,29.65,29.47,6,2,12,0.00
2013-12-31,30.0,22.8,9.0,27.0,20.0,7.0,93,89,85,29.63,29.20,12,6,26,0.00
2014-1-1,34.0,32.2,28.0,33.0,30.5,25.0,100,94,88,29.48,29.09,7,3,14,0.27
2014-1-2,32.0,28.6,24.0,31.0,27.5,23.0,97,96,94,30.05,29.49,2,0,6,0.24